カタログに戻る

STARLINK-11494

運用中通信VLEO
NORAD 62272·PAYLOAD·🇺🇸 United States

打ち上げ Dec 8, 2024 から Cape Canaveral Space Force Station

Loading…

次のパス (今後24時間)

TLE

最新Source: CelesTrak SupGP

元期: Sep 14, 2026, 21:12 UTC

1 62272C 24237F   26257.88381944  .00024285  00000+0  18855-3 0  2571
2 62272  43.0008 356.4718 0001679 280.5582 117.1881 15.70834586    18

AllMySatでSTARLINK-11494をリアルタイム追跡

Download on the App Store